Погода в Ойусардахе

Россия / Республика Саха (Якутия)     68°16′36″N   154°42′31″E
темп.,
°C
ветер,
м/с
пор.,
м/с
влажн.,
%
обл.,
%
осадки,
мм/ч
давл.,
гПа
погр.,
м
4 августа, ср
ср423:00+6ссв8136499 0.0 1020440
02:00+4ссв81271100 0.0 1019397
05:00+3с91275100 0.0 1018436
08:00+4ссв111468100 0.0 1016622
11:00+4с111782100 1.9 1015774
14:00+5ссв101579100 1.4 1014832
17:00+4ссв101488100 3.6 1013775
20:00+3ссв91294100 3.8 1013665
5 августа, чт
чт523:00+3св8994100 4.8 1013551
02:00+3св6795100 1.0 1013418
05:00+3св5593100 1.5 1014378
08:00+3св4491100 0.0 1015354
11:00+5ссв4484100 0.0 1016427
14:00+7с447999 0.0 1017426
17:00+9с5573100 0.0 1018488
20:00+8с6878100 0.0 1019284
6 августа, пт
пт623:00+6с698733 0.0 1020132
02:00+6с689098 0.0 1020305
05:00+5с7992100 0.0 1021462
08:00+6с81089100 0.1 1021452
11:00+6с81087100 0.2 1021440
14:00+8ссв6879100 0.0 1022486
17:00+8ссв677994 0.0 1022483
20:00+8ссв6780100 0.0 1023370
7 августа, сб
сб723:00+6ссв678771 0.0 1024243
02:00+5ссв678998 0.0 1024288
05:00+5ссв6790100 0.1 1025363
08:00+5ссв7887100 0.1 1026437
11:00+6ссв7883100 0.1 1026541
14:00+8ссв687499 0.0 1026543
17:00+10ссв686863 0.0 1026654
20:00+9св69672 0.0 1026367
8 августа, вс
вс823:00+4св68845 0.0 1026195
02:00+3св569219 0.0 1026143
05:00+3св34916 0.0 1026158
08:00+5ссв337968 0.0 1026219
11:00+9св226915 0.0 1025268
14:00+12всв22625 0.0 1024315
17:00+15св22575 0.0 1023316
20:00+14ссв33605 0.0 102223